GW4247 Weather Reports


Display with metric or nautical units.
time (UTC)temp
F
wind
direction
speed
MPH
gust
MPH
rain 1hr
in
rain 24hr
in
rain mn
in
humidity
%
barometer
mb
20260506204507 57 288 1.0 1.0 0.00 0.35 0.35 59 1002.5
20260506204004 57 280 2.0 3.0 0.00 0.35 0.35 55 1002.7
20260506203503 58 276 1.0 2.0 0.00 0.35 0.35 54 1002.5
20260506202958 58 235 1.0 1.0 0.00 0.35 0.35 52 1002.4
20260506202456 58 250 2.0 4.0 0.00 0.35 0.35 52 1002.3
20260506201952 59 13 1.0 2.0 0.00 0.35 0.35 56 1002.4
20260506201449 59 262 1.0 2.0 0.00 0.35 0.35 57 1002.3
20260506200946 58 202 1.0 1.0 0.00 0.35 0.35 56 1002.3
20260506200442 58 223 1.0 1.0 0.00 0.35 0.35 54 1002.2
20260506195938 58 254 1.0 1.0 0.00 0.35 0.35 58 1002.3
20260506195436 59 286 2.0 2.0 0.00 0.35 0.35 55 1002.3
20260506194932 59 185 4.0 6.0 0.00 0.35 0.35 54 1002.1
20260506194430 60 275 4.0 6.0 0.00 0.35 0.35 52 1002.2
20260506193926 60 310 0.0 1.0 0.00 0.35 0.35 52 1002.2
20260506193424 59 274 2.0 3.0 0.00 0.35 0.35 53 1002.1
20260506192920 61 252 6.0 8.0 0.00 0.35 0.35 49 1001.9
20260506192417 60 199 2.0 2.0 0.00 0.35 0.35 51 1001.9
20260506191914 62 143 1.0 2.0 0.00 0.35 0.35 54 1001.8
20260506191410 61 283 0.0 0.0 0.00 0.35 0.35 53 1002.2
20260506190908 60 283 2.0 3.0 0.00 0.35 0.35 54 1002.4
20260506190404 60 256 1.0 2.0 0.00 0.35 0.35 56 1002.2
20260506185901 60 130 3.0 3.0 0.00 0.35 0.35 52 1002.2
20260506185358 61 112 2.0 3.0 0.00 0.35 0.35 53 1002.1
20260506184855 60 295 0.0 0.0 0.00 0.35 0.35 55 1002.0
20260506184352 59 277 1.0 1.0 0.00 0.35 0.35 56 1002.4
20260506183849 58 263 2.0 2.0 0.00 0.35 0.35 55 1002.4
20260506183344 59 92 2.0 4.0 0.00 0.35 0.35 56 1002.3
20260506182842 58 272 1.0 1.0 0.00 0.35 0.35 58 1002.3
20260506182338 59 278 2.0 2.0 0.00 0.35 0.35 55 1002.2
20260506181836 58 219 2.0 3.0 0.00 0.35 0.35 57 1002.4
20260506181334 58 359 2.0 6.0 0.00 0.35 0.35 54 1002.3
20260506180831 59 263 2.0 2.0 0.00 0.35 0.35 54 1002.4
20260506180327 59 18 1.0 2.0 0.00 0.35 0.35 54 1002.2
20260506175823 59 173 2.0 3.0 0.00 0.35 0.35 55 1002.4
20260506175320 60 224 3.0 3.0 0.00 0.35 0.35 51 1002.4
20260506174818 58 166 2.0 2.0 0.00 0.35 0.35 57 1002.5
20260506174315 58 286 0.0 1.0 0.00 0.35 0.35 56 1002.5
20260506173812 59 241 6.0 8.0 0.00 0.35 0.35 53 1002.4
20260506173309 59 281 2.0 4.0 0.00 0.35 0.35 53 1002.6
20260506172806 58 261 0.0 0.0 0.00 0.35 0.35 59 1002.4
20260506172306 58 275 1.0 2.0 0.00 0.35 0.35 56 1002.7
20260506171800 58 108 1.0 1.0 0.00 0.35 0.35 61 1002.7
20260506171257 58 286 0.0 1.0 0.00 0.35 0.35 60 1002.4
20260506170755 58 311 2.0 3.0 0.00 0.35 0.35 56 1002.3
20260506170251 58 244 2.0 3.0 0.00 0.35 0.35 57 1002.4
20260506165749 58 276 0.0 1.0 0.00 0.35 0.35 54 1002.2
20260506165246 59 152 4.0 7.0 0.00 0.35 0.35 58 1002.3
20260506164743 57 35 1.0 1.0 0.00 0.35 0.35 57 1002.6
20260506164240 57 179 1.0 2.0 0.00 0.35 0.35 60 1002.8
20260506163737 57 3 1.0 2.0 0.00 0.35 0.35 65 1002.7
20260506163231 57 20 2.0 3.0 0.00 0.35 0.35 63 1002.7
20260506162728 57 243 2.0 2.0 0.00 0.35 0.35 60 1002.4
20260506162226 56 260 1.0 2.0 0.00 0.35 0.35 64 1002.4
20260506161723 57 52 0.0 1.0 0.00 0.35 0.35 65 1002.6
20260506161220 55 256 2.0 4.0 0.00 0.35 0.35 67 1002.5
20260506160718 57 276 0.0 0.0 0.00 0.35 0.35 66 1002.0
20260506160214 56 338 1.0 1.0 0.00 0.35 0.35 64 1002.3
20260506155713 56 276 1.0 1.0 0.00 0.35 0.35 66 1002.2
20260506155209 55 290 1.0 1.0 0.00 0.35 0.35 71 1002.2
20260506153311 55 253 3.0 4.0 0.00 0.35 0.35 69 1002.0
20260506152808 54 238 2.0 3.0 0.00 0.35 0.35 74 1002.0
20260506152306 55 276 0.0 1.0 0.00 0.35 0.35 73 1001.8
20260506151804 54 17 1.0 2.0 0.00 0.35 0.35 74 1001.9
20260506151300 53 257 1.0 1.0 0.00 0.35 0.35 73 1001.8
20260506150757 52 266 1.0 2.0 0.00 0.35 0.35 74 1001.8
20260506150303 52 139 3.0 3.0 0.00 0.35 0.35 74 1001.7
20260506145751 51 282 1.0 1.0 0.00 0.35 0.35 78 1001.6
20260506145247 52 212 2.0 4.0 0.00 0.35 0.35 77 1001.6
20260506144745 52 270 0.0 0.0 0.00 0.35 0.35 80 1001.7
20260506144242 51 249 2.0 2.0 0.00 0.35 0.35 79 1001.9
20260506143739 50 257 1.0 2.0 0.00 0.35 0.35 81 1001.6
20260506143237 50 250 1.0 2.0 0.00 0.35 0.35 80 1001.5
20260506142735 50 294 2.0 3.0 0.00 0.35 0.35 83 1001.4
20260506142233 51 187 2.0 2.0 0.00 0.35 0.35 82 1001.4
20260506141731 50 27 1.0 1.0 0.00 0.35 0.35 84 1001.2
20260506141229 50 335 1.0 1.0 0.00 0.35 0.35 89 1001.3
20260506140726 49 276 2.0 3.0 0.00 0.35 0.35 88 1001.1
20260506140223 49 205 1.0 2.0 0.00 0.35 0.35 89 1000.9
20260506135719 49 256 1.0 2.0 0.00 0.35 0.35 91 1000.8
20260506135216 49 283 1.0 1.0 0.00 0.35 0.35 90 1000.8
20260506134713 49 247 2.0 3.0 0.00 0.35 0.35 89 1000.8
20260506134209 50 261 1.0 1.0 0.00 0.35 0.35 90 1000.8
20260506133706 49 252 0.0 1.0 0.00 0.35 0.35 93 1000.8
20260506133202 49 326 0.0 0.0 0.00 0.35 0.35 93 1000.6
20260506132700 48 277 0.0 0.0 0.00 0.35 0.35 92 1000.7
20260506132157 48 254 0.0 1.0 0.00 0.35 0.35 93 1000.7
20260506131655 47 7 1.0 1.0 0.00 0.35 0.35 92 1000.6
20260506131150 47 72 1.0 1.0 0.00 0.35 0.35 95 1000.5
20260506130647 47 220 1.0 1.0 0.00 0.35 0.35 96 1000.6
20260506130145 47 274 0.0 0.0 0.00 0.35 0.35 97 1000.6
20260506125643 47 296 0.0 1.0 0.00 0.35 0.35 98 1000.7
20260506125140 47 277 1.0 1.0 0.00 0.35 0.35 98 1000.7
20260506124638 47 254 1.0 1.0 0.00 0.35 0.35 98 1000.4
20260506124136 48 292 0.0 1.0 0.00 0.35 0.35 98 999.8
20260506123633 48 301 0.0 1.0 0.00 0.35 0.35 99 999.6
20260506123132 48 212 0.0 0.0 0.00 0.35 0.35 99 999.4
20260506122628 47 295 0.0 0.0 0.00 0.35 0.35 99 999.7
20260506122126 47 277 0.0 1.0 0.00 0.35 0.35 99 999.4
20260506121623 47 242 1.0 2.0 0.00 0.35 0.35 99 999.7
20260506121119 46 245 1.0 1.0 0.00 0.35 0.35 99 999.8
20260506120618 46 275 0.0 1.0 0.00 0.35 0.35 99 999.7
20260506120115 46 274 2.0 2.0 0.00 0.35 0.35 99 999.6
20260506115613 46 277 0.0 0.0 0.00 0.35 0.35 99 999.4
20260506115111 46 276 0.0 0.0 0.00 0.35 0.35 99 999.6
20260506114608 46 328 1.0 1.0 0.00 0.35 0.35 99 999.5
20260506114106 46 268 0.0 0.0 0.00 0.35 0.35 99 999.7
20260506113604 46 269 0.0 0.0 0.00 0.35 0.35 99 999.2
20260506113101 46 265 0.0 0.0 0.00 0.35 0.35 99 999.0
20260506112557 46 282 1.0 1.0 0.00 0.35 0.35 99 998.8
20260506112055 46 296 0.0 0.0 0.00 0.35 0.35 99 998.8
20260506111552 46 86 1.0 4.0 0.00 0.35 0.35 99 998.6
20260506111049 46 257 1.0 1.0 0.00 0.35 0.35 99 998.4
20260506110547 46 22 1.0 2.0 0.00 0.35 0.35 99 998.0
20260506110044 46 294 0.0 1.0 0.07 0.35 0.35 99 998.0
20260506105540 46 270 0.0 1.0 0.07 0.35 0.35 99 998.8
20260506105038 46 250 0.0 1.0 0.00 0.34 0.34 99 998.7
20260506104536 46 271 0.0 1.0 0.07 0.34 0.34 99 998.7
20260506104033 46 218 1.0 1.0 0.07 0.34 0.34 99 998.7
20260506103530 46 254 0.0 1.0 0.00 0.33 0.33 99 998.4
20260506103027 46 269 2.0 3.0 0.00 0.33 0.33 99 998.2
20260506102525 46 187 1.0 2.0 0.00 0.33 0.33 99 998.0
20260506102022 46 304 0.0 1.0 0.00 0.33 0.33 99 998.0
20260506101519 46 64 1.0 1.0 0.00 0.33 0.33 99 998.1
20260506101016 46 281 1.0 2.0 0.00 0.33 0.33 99 997.7
20260506100514 46 307 0.0 0.0 0.00 0.33 0.33 99 997.3
20260506100012 46 235 1.0 2.0 0.00 0.33 0.33 99 996.9
20260506095511 46 331 0.0 0.0 0.00 0.33 0.33 99 997.0
20260506095006 46 177 1.0 2.0 0.00 0.33 0.33 99 997.0
20260506094505 46 28 2.0 2.0 0.00 0.33 0.33 99 997.3
20260506094002 46 267 1.0 1.0 0.00 0.33 0.33 99 997.4
20260506093500 46 290 1.0 3.0 0.00 0.33 0.33 99 997.4
20260506092957 46 23 2.0 3.0 0.00 0.33 0.33 99 997.3
20260506092455 46 239 3.0 3.0 0.00 0.33 0.33 99 997.6
20260506091951 46 270 0.0 0.0 0.00 0.33 0.33 99 997.6
20260506091450 46 11 1.0 1.0 0.00 0.33 0.33 99 997.3
20260506090947 47 332 3.0 3.0 0.05 0.33 0.33 99 997.3
20260506090445 47 104 1.0 2.0 0.12 0.33 0.33 99 997.1
20260506085940 47 105 1.0 1.0 0.07 0.32 0.32 99 997.2
20260506085438 47 143 1.0 1.0 0.05 0.31 0.31 99 997.5
20260506084934 47 278 0.0 0.0 0.12 0.31 0.31 99 997.7
20260506084431 47 265 2.0 2.0 0.12 0.30 0.30 99 997.6
20260506083927 47 244 2.0 2.0 0.19 0.30 0.30 99 997.5
20260506083424 47 308 2.0 3.0 0.12 0.28 0.28 99 997.2
20260506082922 47 17 1.0 1.0 0.12 0.27 0.27 99 997.4
20260506082419 47 351 3.0 6.0 0.19 0.26 0.26 99 997.0
20260506081914 47 257 0.0 1.0 0.17 0.25 0.25 99 997.1
20260506081413 47 305 0.0 1.0 0.05 0.23 0.23 99 997.0
20260506080910 47 256 1.0 1.0 0.00 0.22 0.22 99 996.9
20260506080406 47 15 2.0 2.0 0.00 0.22 0.22 99 997.3
20260506073350 48 341 1.0 2.0 0.00 0.21 0.21 99 996.5
20260506072847 48 224 2.0 3.0 0.07 0.21 0.21 99 996.5
20260506072345 48 267 0.0 0.0 0.07 0.21 0.21 99 996.6
20260506071843 49 275 1.0 2.0 0.05 0.20 0.20 99 996.6
20260506071341 49 277 1.0 1.0 0.05 0.20 0.20 99 996.5
20260506070837 49 287 0.0 1.0 0.07 0.19 0.19 99 996.5
20260506070334 49 277 0.0 1.0 0.19 0.19 0.19 99 996.6
20260506062311 51 276 0.0 0.0 0.07 0.11 0.11 99 996.6
20260506061807 51 245 1.0 1.0 0.14 0.11 0.11 99 996.5
20260506061304 51 281 0.0 1.0 0.12 0.10 0.10 99 996.6
20260506060802 51 280 0.0 0.0 0.05 0.09 0.09 99 996.6
20260506060300 51 304 0.0 0.0 0.07 0.08 0.08 99 996.7
20260506051231 52 273 0.0 1.0 0.00 0.01 0.01 99 997.1
20260506050730 52 262 1.0 1.0 0.00 0.01 0.01 99 997.2
20260506050227 52 307 0.0 0.0 0.05 0.01 0.01 99 997.3
20260506044717 52 276 0.0 0.0 0.00 0.00 0.00 99 997.3
20260506044215 52 281 0.0 1.0 0.00 0.00 0.00 99 997.2
20260506043712 52 296 1.0 1.0 0.00 0.00 0.00 99 997.3
20260506043210 52 227 1.0 1.0 0.00 0.00 0.00 99 997.3
20260506042708 53 277 0.0 1.0 0.00 0.00 0.00 99 997.4
20260506042206 53 275 2.0 2.0 0.00 0.00 0.00 99 997.4
20260506041704 54 228 4.0 4.0 0.00 0.00 0.00 99 997.5
20260506041201 56 53 0.0 1.0 0.00 0.00 0.00 99 997.3
20260506040658 58 274 3.0 3.0 0.00 0.00 0.00 99 997.3
20260506040155 58 283 2.0 2.0 0.07 0.00 0.00 99 997.3
20260506035652 58 279 3.0 3.0 0.12 0.55 0.55 99 997.5
20260506035149 58 267 2.0 2.0 0.12 0.54 0.54 99 997.5
20260506034645 58 289 2.0 2.0 0.14 0.53 0.53 99 997.7
20260506034143 58 278 4.0 6.0 0.12 0.52 0.52 99 997.8
20260506033640 58 329 4.0 6.0 0.17 0.51 0.51 99 997.9
20260506033137 58 284 2.0 2.0 0.24 0.50 0.50 99 997.8
20260506032634 58 280 4.0 7.0 0.19 0.48 0.48 99 998.1
20260506032131 58 280 2.0 2.0 0.24 0.47 0.47 99 998.1
20260506031628 58 289 1.0 2.0 0.28 0.45 0.45 99 998.1
20260506031125 58 283 2.0 2.0 0.26 0.42 0.42 99 998.2
20260506030623 58 302 1.0 2.0 0.19 0.40 0.40 99 998.3
20260506030120 58 278 3.0 3.0 0.12 0.38 0.38 99 998.1
20260506025617 58 246 4.0 7.0 0.12 0.37 0.37 99 998.2
20260506025113 58 292 1.0 2.0 0.05 0.36 0.36 99 998.0
20260506024611 58 296 1.0 1.0 0.17 0.36 0.36 99 998.1
20260506024107 58 266 3.0 3.0 0.19 0.35 0.35 99 998.3
20260506023603 58 290 2.0 2.0 0.19 0.33 0.33 99 998.3
20260506023100 58 281 1.0 2.0 0.17 0.32 0.32 99 998.3
20260506022558 58 240 2.0 2.0 0.12 0.30 0.30 99 998.4
20260506022055 59 286 1.0 2.0 0.19 0.29 0.29 99 998.3
20260506021553 59 282 1.0 2.0 0.19 0.28 0.28 99 998.3
20260506021049 59 280 2.0 3.0 0.19 0.27 0.27 99 998.5
20260506020547 59 278 1.0 1.0 0.17 0.25 0.25 99 998.4
20260506020044 59 280 1.0 2.0 0.12 0.23 0.23 99 998.4
20260506015542 59 272 1.0 1.0 0.12 0.22 0.22 99 998.3
20260506015039 59 273 2.0 3.0 0.17 0.21 0.21 99 998.3
20260506014536 59 282 1.0 2.0 0.19 0.20 0.20 99 998.2
20260506014031 59 282 1.0 1.0 0.07 0.18 0.18 99 998.3
20260506013530 59 283 1.0 1.0 0.12 0.18 0.18 99 997.9
20260506013026 59 282 1.0 1.0 0.05 0.17 0.17 99 998.0
20260506012522 59 283 2.0 2.0 0.00 0.16 0.16 99 998.0
20260506012020 59 279 0.0 1.0 0.00 0.16 0.16 99 997.8
20260506011517 59 284 0.0 1.0 0.07 0.16 0.16 99 997.8
20260506011013 59 287 2.0 2.0 0.07 0.16 0.16 99 997.9
20260506010513 59 281 0.0 1.0 0.00 0.15 0.15 99 997.9
20260506010009 59 270 1.0 1.0 0.00 0.15 0.15 99 997.9
20260506005506 59 285 2.0 2.0 0.07 0.15 0.15 99 998.1
20260506005002 59 282 2.0 2.0 0.12 0.15 0.15 99 998.0
20260506004459 59 282 0.0 1.0 0.05 0.14 0.14 99 998.1
20260506003955 59 280 0.0 1.0 0.00 0.13 0.13 99 998.1
20260506003452 59 282 0.0 0.0 0.00 0.13 0.13 99 998.1
20260506002948 59 260 1.0 1.0 0.00 0.13 0.13 99 998.2
20260506002444 59 304 2.0 2.0 0.07 0.13 0.13 99 998.0
20260506001940 59 280 2.0 3.0 0.07 0.13 0.13 99 998.1
20260506001437 59 294 2.0 2.0 0.00 0.12 0.12 99 998.1
20260506000934 59 279 1.0 1.0 0.00 0.12 0.12 99 998.2
20260506000432 59 289 1.0 1.0 0.00 0.12 0.12 99 998.1
20260505235929 59 284 1.0 1.0 0.00 0.12 0.12 99 998.2
20260505235427 59 279 1.0 1.0 0.00 0.12 0.12 99 998.0
20260505234923 59 275 1.0 1.0 0.00 0.12 0.12 99 998.1
20260505234421 59 291 2.0 2.0 0.00 0.12 0.12 99 998.1
20260505233917 59 282 0.0 1.0 0.00 0.12 0.12 99 998.2
20260505233415 59 287 0.0 1.0 0.00 0.12 0.12 99 998.1
20260505232913 59 287 1.0 1.0 0.00 0.12 0.12 99 998.1
20260505232411 59 279 1.0 1.0 0.00 0.12 0.12 99 998.3
20260505231907 59 299 2.0 2.0 0.00 0.12 0.12 99 998.2
20260505231404 59 289 2.0 2.0 0.00 0.12 0.12 99 998.5
20260505230902 59 277 1.0 1.0 0.00 0.12 0.12 99 998.4
20260505230400 59 279 1.0 1.0 0.00 0.12 0.12 99 998.5
20260505225856 59 283 2.0 3.0 0.05 0.12 0.12 99 998.4
20260505225353 59 267 2.0 3.0 0.05 0.12 0.12 99 998.7
20260505224848 59 277 2.0 2.0 0.07 0.11 0.11 99 998.6
20260505224346 59 258 1.0 1.0 0.07 0.11 0.11 98 998.5
20260505223843 59 252 2.0 2.0 0.12 0.11 0.11 98 998.4
20260505223340 59 222 4.0 6.0 0.17 0.10 0.10 98 998.7
20260505222836 59 282 2.0 2.0 0.12 0.09 0.09 98 998.6
20260505222332 59 314 3.0 4.0 0.05 0.08 0.08 98 998.6
20260505221829 59 300 4.0 4.0 0.07 0.07 0.07 97 998.5
20260505221326 59 287 1.0 1.0 0.07 0.07 0.07 97 998.5
20260505220823 59 278 5.0 7.0 0.12 0.06 0.06 96 998.6
20260505220320 59 284 4.0 6.0 0.31 0.06 0.06 95 998.5
20260505215818 60 225 6.0 11.0 0.24 0.04 0.04 92 998.5
20260505215316 66 285 6.0 8.0 0.05 0.01 0.01 80 998.5
20260505214814 68 296 2.0 4.0 0.00 0.00 0.00 66 997.8
20260505214311 69 219 6.0 7.0 0.00 0.00 0.00 62 997.6
20260505213808 69 297 3.0 4.0 0.00 0.00 0.00 63 997.4
20260505213306 69 293 3.0 3.0 0.00 0.00 0.00 62 997.5
20260505212801 69 250 5.0 7.0 0.00 0.00 0.00 62 997.6
20260505212259 70 284 3.0 3.0 0.00 0.00 0.00 62 997.4
20260505211755 70 268 4.0 4.0 0.00 0.00 0.00 62 997.7
20260505211253 70 214 2.0 3.0 0.00 0.00 0.00 62 997.3
20260505210749 71 279 4.0 4.0 0.00 0.00 0.00 61 997.3
20260505210246 70 245 1.0 2.0 0.00 0.00 0.00 64 997.5
20260505205743 69 355 7.0 13.0 0.00 0.00 0.00 63 997.6
20260505205241 69 295 2.0 2.0 0.00 0.00 0.00 65 997.6